• Join FlightAware (Why Join?)
  • Login
  • US Flag 
01:58AM EDT


 

Airport Tracker/Info


-or-


 

Live Flight TrackerFlight Track Log ✈ SWA2166 ✈ 12-Apr-2013 ✈ KHOU - KBWI

Flight Track Log - Related Links

Times and Time Zones

All times are in EDT time to prevent confusion due to time zone crossing. See the SWA2166 flight status page for this flight to view local times or setup timezone preferences in your user account.

Time Position Orientation Groundspeed Altitude Reporting Facility
EDT Latitude Longitude Course Direction KTS MPH feet Rate Location/Type
09:45PM 29.6606 -95.2644 15° North 164 189 800  Level Houston Center
09:46PM 29.6728 -95.2606 15° North 167 192 1,700 3,120 Climbing Houston Center
09:47PM 29.7261 -95.2708 350° North 220 253 4,700 2,880 Climbing Houston Center
09:47PM 29.7372 -95.2728 351° North 205 236 5,300 3,780 Climbing Houston Center
09:48PM 29.7919 -95.2797 354° North 242 278 8,500 3,900 Climbing Houston Center
09:48PM 29.8047 -95.2817 352° North 232 267 9,300 2,820 Climbing Houston Center
09:49PM 29.8736 -95.2844 358° North 245 282 12,400 2,820 Climbing Houston Center
09:50PM 29.9767 -95.2297 25° Northeast 340 391 15,100 2,640 Climbing Houston Center
09:51PM 30.0753 -95.1794 24° Northeast 379 436 17,900 2,400 Climbing Houston Center
09:52PM 30.1828 -95.1219 25° Northeast 424 488 20,100 2,460 Climbing Houston Center
09:53PM 30.2947 -95.0644 24° Northeast 439 505 23,000 2,460 Climbing Houston Center
09:54PM 30.4122 -95.0011 25° Northeast 468 539 25,200 2,160 Climbing Houston Center
09:55PM 30.5228 -94.9153 34° Northeast 468 539 27,500 2,220 Climbing Houston Center
09:56PM 30.6350 -94.8275 34° Northeast 480 552 29,800 1,860 Climbing Houston Center
09:57PM 30.7417 -94.7275 39° Northeast 495 570 31,400 1,620 Climbing Houston Center
09:58PM 30.8328 -94.6036 49° Northeast 507 583 33,100 1,860 Climbing Houston Center
09:59PM 30.9428 -94.4553 49° Northeast 510 587 35,300 2,040 Climbing Houston Center
10:00PM 31.0325 -94.3342 49° Northeast 502 578 37,300 1,500 Climbing Houston Center
10:01PM 31.1222 -94.2128 49° Northeast 499 574 38,400 780 Climbing Houston Center
10:02PM 31.2133 -94.0906 49° Northeast 501 577 39,000 240 Climbing Houston Center
10:03PM 31.3033 -93.9658 50° Northeast 503 579 39,000  Level Houston Center
10:04PM 31.3944 -93.8433 49° Northeast 501 577 39,000  Level Houston Center
10:05PM 31.4844 -93.7192 50° Northeast 499 574 39,000  Level Houston Center
10:06PM 31.5744 -93.5958 49° Northeast 498 573 39,000  Level Houston Center
10:07PM 31.6817 -93.4478 50° Northeast 499 574 39,000  Level Houston Center
10:08PM 31.7725 -93.3233 49° Northeast 500 575 39,000  Level Houston Center
10:09PM 31.8611 -93.1983 50° Northeast 498 573 39,000  Level Houston Center
10:10PM 31.9506 -93.0722 50° Northeast 499 574 39,000  Level Houston Center
10:11PM 32.0347 -92.9550 50° Northeast 495 570 39,000  Level Houston Center
10:12PM 32.1294 -92.8231 50° Northeast 497 572 39,000  Level Houston Center
10:13PM 32.2175 -92.6961 51° Northeast 498 573 39,000  Level Houston Center
10:14PM 32.3017 -92.5803 49° Northeast 497 572 39,000  Level Houston Center
10:15PM 32.3894 -92.4528 51° Northeast 499 574 39,000  Level Houston Center
10:16PM 32.4503 -92.3669 50° Northeast 488 562 39,000  Level Fort Worth Center
10:17PM 32.5392 -92.2411 50° Northeast 488 562 39,000  Level Fort Worth Center
10:18PM 32.6278 -92.1103 51° Northeast 493 567 39,000  Level Fort Worth Center
10:20PM 32.7858 -91.8794 51° Northeast 505 581 39,000  Level Memphis Center
10:21PM 32.8772 -91.7525 49° Northeast 510 587 39,000  Level Memphis Center
10:22PM 32.9642 -91.6225 51° Northeast 510 587 39,000  Level Memphis Center
10:23PM 33.0531 -91.4925 51° Northeast 505 581 39,000  Level Memphis Center
10:24PM 33.1336 -91.3544 55° Northeast 505 581 39,000  Level Memphis Center
10:25PM 33.2097 -91.2089 58° Northeast 505 581 39,000  Level Memphis Center
10:26PM 33.2858 -91.0681 57° Northeast 505 581 39,000  Level Memphis Center
10:27PM 33.3594 -90.9219 59° Northeast 510 587 39,000  Level Memphis Center
10:28PM 33.4372 -90.7756 57° Northeast 516 594 39,000  Level Memphis Center
10:29PM 33.5128 -90.6289 58° Northeast 516 594 39,000  Level Memphis Center
10:30PM 33.5883 -90.4794 59° Northeast 516 594 39,000  Level Memphis Center
10:31PM 33.6656 -90.3272 59° Northeast 516 594 39,000  Level Memphis Center
10:32PM 33.7406 -90.1797 59° Northeast 516 594 39,000  Level Memphis Center
10:33PM 33.8175 -90.0297 58° Northeast 516 594 39,000  Level Memphis Center
10:34PM 33.8900 -89.8767 60° Northeast 522 601 39,000  Level Memphis Center
10:35PM 33.9686 -89.7236 58° Northeast 527 606 39,000  Level Memphis Center
10:36PM 34.0408 -89.5725 60° Northeast 527 606 39,000  Level Memphis Center
10:37PM 34.1169 -89.4214 59° Northeast 522 601 39,000  Level Memphis Center
10:38PM 34.1931 -89.2697 59° Northeast 522 601 39,000  Level Memphis Center
10:39PM 34.2667 -89.1181 60° Northeast 522 601 39,000  Level Memphis Center
10:40PM 34.3483 -88.9533 59° Northeast 521 600 39,000  Level Memphis Center
10:41PM 34.4053 -88.8342 60° Northeast 516 594 39,000  Level Memphis Center
10:42PM 34.4911 -88.6764 57° Northeast 510 587 39,000  Level Memphis Center
10:43PM 34.5619 -88.5236 61° Northeast 510 587 39,000  Level Memphis Center
10:44PM 34.6367 -88.3731 59° Northeast 510 587 39,000  Level Memphis Center
10:45PM 34.7114 -88.2222 59° Northeast 517 595 39,000  Level Memphis Center
10:46PM 34.7917 -88.0433 61° Northeast 531 611 39,000  Level Memphis Center
10:47PM 34.8700 -87.8842 59° Northeast 536 617 39,000  Level Memphis Center
10:48PM 34.9417 -87.7250 61° Northeast 529 609 39,000  Level Memphis Center
10:49PM 35.0156 -87.5681 60° Northeast 541 623 39,000  Level Memphis Center
10:51PM 35.1822 -87.2119 60° Northeast 554 638 39,000  Level Memphis Center
10:52PM 35.2556 -87.0642 59° Northeast 561 646 39,000  Level Memphis Center
10:53PM 35.3306 -86.9008 61° Northeast 561 646 39,000  Level Memphis Center
10:54PM 35.4128 -86.7167 61° Northeast 555 639 39,000 -240 Level Memphis Center
10:55PM 35.4892 -86.5500 61° Northeast 555 639 38,600 -900 Descending Memphis Center
10:56PM 35.5633 -86.3883 61° Northeast 555 639 37,300 -840 Descending Memphis Center
10:57PM 35.6372 -86.2267 61° Northeast 550 633 37,000 -180 Descending Memphis Center
10:58PM 35.7111 -86.0644 61° Northeast 550 633 37,000  Level Memphis Center
10:59PM 35.7844 -85.8992 61° Northeast 545 627 37,000  Level Memphis Center
11:00PM 35.8500 -85.7550 61° Northeast 540 621 37,000  Level Memphis Center
11:01PM 35.9256 -85.5850 61° Northeast 538 619 37,000  Level Atlanta Center
11:02PM 35.9983 -85.4222 61° Northeast 582 670 37,000  Level Atlanta Center
11:03PM 36.0731 -85.2564 61° Northeast 555 639 37,000  Level Atlanta Center
11:04PM 36.1603 -85.0531 62° Northeast 553 636 37,000  Level Indianapolis Center
11:05PM 36.2344 -84.8847 61° Northeast 549 632 37,000  Level Indianapolis Center
11:06PM 36.3075 -84.7144 62° Northeast 553 636 37,000  Level Indianapolis Center
11:07PM 36.3797 -84.5464 62° Northeast 549 632 37,000  Level Indianapolis Center
11:08PM 36.4522 -84.3769 62° Northeast 554 638 37,000  Level Indianapolis Center
11:09PM 36.5256 -84.2039 62° Northeast 552 635 37,000  Level Indianapolis Center
11:10PM 36.5986 -84.0328 62° Northeast 558 642 37,000  Level Indianapolis Center
11:11PM 36.6706 -83.8608 62° Northeast 560 644 37,000  Level Indianapolis Center
11:12PM 36.7453 -83.6900 61° Northeast 558 642 37,000  Level Indianapolis Center
11:13PM 36.8186 -83.5150 62° Northeast 565 650 37,000  Level Indianapolis Center
11:14PM 36.8911 -83.3419 62° Northeast 559 643 37,000  Level Indianapolis Center
11:15PM 36.9633 -83.1661 63° Northeast 562 647 37,000  Level Indianapolis Center
11:16PM 37.0378 -82.9886 62° Northeast 561 646 37,000  Level Indianapolis Center
11:17PM 37.1114 -82.8081 63° Northeast 567 652 37,000  Level Indianapolis Center
11:18PM 37.1822 -82.6314 63° Northeast 562 647 37,000  Level Indianapolis Center
11:19PM 37.2553 -82.4567 62° Northeast 564 649 37,000  Level Indianapolis Center
11:20PM 37.3256 -82.2803 63° Northeast 563 648 37,000  Level Indianapolis Center
11:21PM 37.3967 -82.1047 63° Northeast 563 648 37,000  Level Indianapolis Center
11:22PM 37.4669 -81.9292 63° Northeast 562 647 37,000  Level Indianapolis Center
11:23PM 37.5275 -81.7464 67° East 564 649 37,000  Level Indianapolis Center
11:25PM 37.5928 -81.5317 69° East 562 647 37,000  Level Indianapolis Center
11:26PM 37.6464 -81.3539 69° East 562 647 37,000  Level Indianapolis Center
11:26PM 37.6692 -81.2800 69° East 553 636 37,000  Level Washington Center
11:27PM 37.7233 -81.1003 69° East 553 636 37,000  Level Washington Center
11:28PM 37.7747 -80.9333 69° East 558 642 37,000  Level Washington Center
11:29PM 37.8289 -80.7478 70° East 558 642 37,000  Level Washington Center
11:30PM 37.8825 -80.5647 70° East 553 636 37,000  Level Washington Center
11:31PM 37.9378 -80.3814 69° East 558 642 37,000  Level Washington Center
11:32PM 37.9981 -80.1769 69° East 558 642 37,000  Level Washington Center
11:33PM 38.0528 -79.9931 69° East 558 642 37,000  Level Washington Center
11:34PM 38.1056 -79.8061 70° East 558 642 37,000  Level Washington Center
11:35PM 38.1597 -79.6217 69° East 558 642 37,000 -600 Level Washington Center
11:36PM 38.2139 -79.4342 70° East 558 642 35,900 -1,860 Descending Washington Center
11:37PM 38.2678 -79.2492 70° East 558 642 33,300 -2,520 Descending Washington Center
11:38PM 38.3122 -79.0822 71° East 553 636 30,900 -2,340 Descending Washington Center
11:39PM 38.3611 -78.9069 70° East 543 625 28,700 -1,980 Descending Washington Center
11:40PM 38.4100 -78.7183 72° East 523 602 27,000 -900 Descending Washington Center
11:41PM 38.4581 -78.5428 71° East 516 594 27,000 -60 Level Washington Center
11:42PM 38.5061 -78.3617 71° East 522 601 26,900 -1,440 Descending Washington Center
11:43PM 38.5561 -78.1803 71° East 529 609 24,200 -2,820 Descending Washington Center
11:44PM 38.6036 -78.0039 71° East 529 609 21,300 -2,640 Descending Washington Center
11:45PM 38.6422 -77.8350 74° East 514 592 19,000 -1,200 Descending Washington Center
11:46PM 38.6511 -77.6892 85° East 480 552 19,000  Level Washington Center
11:47PM 38.6667 -77.5667 81° East 464 534 19,000 -1,620 Level Potomac TRACON
11:48PM 38.6667 -77.4000 90° East 457 526 16,300 -1,620 Descending Potomac TRACON
11:49PM 38.6833 -77.2500 82° East 434 499 15,800 -1,680 Descending Potomac TRACON
11:49PM 38.7000 -77.1167 81° East 428 493 13,200 -2,700 Descending Potomac TRACON
11:50PM 38.7167 -76.9833 81° East 419 482 11,000 -1,620 Descending Potomac TRACON
11:51PM 38.7500 -76.8333 74° East 369 425 10,000 -1,200 Descending Potomac TRACON
11:52PM 38.7667 -76.7167 80° East 335 386 8,500 -1,440 Descending Potomac TRACON
11:54PM 38.8333 -76.6333 44° Northeast 313 360 7,100 -1,440 Descending Potomac TRACON
11:54PM 38.9000 -76.5667 38° Northeast 306 352 5,700 -1,200 Descending Potomac TRACON
11:55PM 38.9500 -76.5167 38° Northeast 263 303 5,000 -780 Descending Potomac TRACON
11:56PM 39.0000 -76.4667 38° Northeast 213 245 4,300 -840 Descending Potomac TRACON
11:57PM 39.0167 -76.5167 293° West 162 186 3,300 -900 Descending Potomac TRACON
11:58PM 39.0500 -76.5500 322° Northwest 142 163 2,600 -660 Descending Potomac TRACON
11:59PM 39.0833 -76.5833 322° Northwest 140 161 2,100 -540 Descending Potomac TRACON
12:00AM 39.1000 -76.6167 303° West 141 162 1,600 -600 Descending Potomac TRACON
12:01AM 39.1333 -76.6333 339° North 108 124 900 -600 Descending Potomac TRACON
12:02AM 39.1500 -76.6500 322° Northwest 113 130 400 -600 Descending Potomac TRACON
12:04AM 39.1667 -76.6667 339° North  Level FlightAware Approximate
12:11AM 39.1754 -76.6683 339° North  Level Estimated
12:12AM 39.1754 -76.6683 339° North  Level Estimated
12:13AM 39.1754 -76.6683 339° North  Level Estimated